Brockley, United Kingdom
Current Conditions -  °F | °C
As of 5:50 AM on Thursday 18 Dec 2014 (Local Time) from EGLC Reporting Station
Broken Clouds Broken Clouds  
Wind Chill: 13°   Ceiling: 1600
Heat Index: 13°   Visibility: 6mi
Dew Point: 11°   Wind: 16mph
Humidity: 88%   Direction: 250°WSW
Pressure: 29.8"   Gusts: NA
Location:  51.45°N, 0.03°W
Report Text: EGLC 180550Z AUTO 25014KT 9999 SCT010/// BKN016/// 13/11 Q1009
Loading
Personal Weather Stations






























Interactive Weather Map New forecast layout! Learn more

10-Day Weather Forecast

Advertisements
Track Severe Weather on mobile